Find Starlink 11568

NORAD ID: 63307 Int'l Des: 2025-057 Owner: SPXS Country: US Constellation: starlink operational
LEOCIRCULAR

Aktuelle Ansicht

3D-Globus wird geladen...

Über Starlink 11568

Beschreibung wird geladen...

Nächste Überflüge

Passes for default location (London). Set your location on the main map for personalized predictions.

Höhenverlauf

Loading altitude history...

Zweizeiliger Elementsatz

1 63307U 25057A 26158.48419145 .00178456 00000-0 13612-2 0 9992
2 63307 42.9924 82.9509 0003448 274.1385 85.9088 15.70895804 71309
Epoch: 7. Juni 2026 • Age: 36 hours

Aktueller Status

Höhe 359.3 km
Geschwindigkeit 7.69 km/s
Subsatellitenpunkt -22.43°S, 28.41°E
Startdatum 18. März 2025
Alter 1.2 years
Typ internet

Technische Details

Klassifizierung Payload
Masse 960.00 kg
Trockenmasse 910.00 kg
Gesamtmasse 960.00 kg
Länge 0.30 m
Durchmesser 4.10 m
Spannweite 29.00 m
Form Box + pan
Hersteller SPXS
Bus-Typ Starlink V2MD
Phasenstatus In Orbit
Besitzer/Staat SPXS/US

Most Searched